2024-014A

Last updated on Mon Jan 29 2024 00:02:07 GMT+0000 (Coordinated Universal Time)

1 58815U 24014A 24028.53480527 .00013888 00000+0 25703-3 0 9995 2 58815 51.6393 292.3172 0002675 175.1054 184.9961 15.49305975436734
UTC large
Height (km)
Speed (km/s)
/
Latitude / Longitude
Inclination (degrees)
Orbital Period (minutes)
Azimuth
Elevation
Range (km)
Doppler Factor

Next 0 passes for location: London (51.5072 / 0.1276)

Sorry there are no passes over London.